BREEZE-M R/B, 35874

Orbit data source: Space-Track

BREEZE-M R/B, 35874 is space debris in HEO originally from a launch on Thu, 17 Sep 2009 UTC launched from the Tyuratam Missile And Space Complex (TTMTR). Debris objects in space refer to the collection of defunct objects orbiting the Earth. Examples of debris include non-operational satellites, rocket bodies, and fragments generated from explosions, collisions, or faulty payload assembly.

Loading next visibility...
Identifier
35874, 2009-050B
Orbit
HEO
Country
Flag of CISCIS
Related business
Manufacturer
Khrunichev
Mission
Spacecraft
Bus & Motor
BRIZ, Unknown motor
Mass
~1,600 kg wet, 1,600 kg dry
Launch date (UTC)
2009-09-17 (17 years ago)
Launch vehicle
Unknown
Launch site
Tyuratam Missile And Space Complex (TTMTR)
Object type
Payload
Rocket body
Debris
Shape & HBR
Cyl, 2.0 m
Radar Cross Section
15.135 m², Large (>1 m²)

Expand to show TLE details & history
Last TLE update: 21 hours ago

TLE from 21 hours ago
0 BREEZE-M R/B
1 35874U 09050B   26149.82610721 -.00000095  00000-0  00000-0 0  9995
2 35874  13.4765   0.3714 4798459 177.0546 200.9524  1.93075466117031
Epoch: 2026-05-29T19:49Z
TLE epoch observation values (Epoch: 2026-05-29T19:49:35.662Z)
Latitude
1.30001°
Longitude
-178.97339°
Altitude
33,517.404 km
Speed
2.313 km/s
True Right ascension
00h 23m 06s
True Declination
1° 17' 55"
Sunlit
Object was in daylight at epoch
Visualization orbit readout
Latitude
Unknown
Longitude
Unknown
Altitude
Unknown
Speed
Unknown
Apparent Right ascension
Unknown
Apparent Declination
Unknown
Sunlit
N/A
Visualization observer readout
Local Sidereal Time
01:53:42
Azimuth
Unknown
Elevation
Unknown
Doppler factor
Unknown
Orbital elements
Apogee altitude
33,940.167 km
Perigee altitude
7,793.427 km
Semi-major axis
27,244.934 km
Eccentricity
0.47985
Inclination
13.4765°
RAAN
0.3714°
Arg. of periapsis
177.0546°
True anomaly
188.45007°
Mean anomaly
200.9524°
Eccentric anomaly
194.20555°
Mean motion
0.48263 °/min
Orbital period
745.91 mins
BSTAR
0
Loading maneuver chart data...
Computing Atmospheric mass density...
Loading historical data...
Loading historical data...
Loading historical data...
Loading historical data...
Loading historical data...
Loading historical data...
Loading historical data...
Other satellites on launch #50 in the year 2009 (2009-09-17 UTC)

Documentation

Showing up to 5 results
|